EWG4MR EDDK-EDSB

Flight info

Callsign EWG4MR
Flight time 0h 40m
Altitude 23000
Route KUMIK6D KUMIK L603 BOMBI N850 KRH KRH1L
Aircraft B738/M-SDE2E3FGHIRWXY/LB1

Departure

Time 2026-04-23 17:51
Airport Cologne Bonn Airport (EDDK)

Arrival

Time 2026-04-23 18:31
Airport Karlsruhe Baden-Baden Airport (EDSB)
Time Latitude Longitude Altitude Speed Heading
2026-04-23 17:33 50.87878 7.12470 230 ft 0 kts 248°
2026-04-23 17:36 50.87883 7.12488 230 ft 2 kts 247°
2026-04-23 17:36 50.87888 7.12510 230 ft 2 kts 248°
2026-04-23 17:37 50.87894 7.12532 230 ft 2 kts 248°
2026-04-23 17:37 50.87899 7.12554 231 ft 2 kts 248°
2026-04-23 17:37 50.87909 7.12589 231 ft 2 kts 244°
2026-04-23 17:38 50.87918 7.12608 231 ft 2 kts 216°
2026-04-23 17:38 50.87931 7.12619 231 ft 2 kts 194°
2026-04-23 17:38 50.87944 7.12622 231 ft 0 kts 175°
2026-04-23 17:38 50.87951 7.12620 231 ft 1 kts 172°
2026-04-23 17:40 50.87945 7.12621 231 ft 5 kts 175°
2026-04-23 17:41 50.87885 7.12612 231 ft 10 kts 185°
2026-04-23 17:41 50.87707 7.12788 233 ft 14 kts 137°
2026-04-23 17:41 50.87632 7.12896 234 ft 17 kts 137°
2026-04-23 17:42 50.87462 7.13143 237 ft 14 kts 137°
2026-04-23 17:42 50.87391 7.13247 238 ft 12 kts 137°
2026-04-23 17:42 50.87331 7.13335 240 ft 10 kts 137°
2026-04-23 17:43 50.87280 7.13409 241 ft 9 kts 137°
2026-04-23 17:43 50.87224 7.13492 242 ft 12 kts 137°
2026-04-23 17:43 50.87145 7.13607 244 ft 15 kts 137°
2026-04-23 17:43 50.87071 7.13713 246 ft 14 kts 139°
2026-04-23 17:44 50.86977 7.13844 250 ft 19 kts 138°
2026-04-23 17:44 50.86883 7.13980 253 ft 16 kts 137°
2026-04-23 17:44 50.86707 7.14177 260 ft 13 kts 141°
2026-04-23 17:45 50.86621 7.14301 264 ft 20 kts 137°
2026-04-23 17:45 50.86422 7.14589 270 ft 19 kts 137°
2026-04-23 17:45 50.86326 7.14727 273 ft 17 kts 137°
2026-04-23 17:46 50.86148 7.14985 278 ft 15 kts 137°
2026-04-23 17:46 50.86068 7.15100 280 ft 17 kts 136°
2026-04-23 17:46 50.85978 7.15232 282 ft 19 kts 137°
2026-04-23 17:47 50.85873 7.15383 285 ft 19 kts 137°
2026-04-23 17:47 50.85779 7.15519 288 ft 17 kts 137°
2026-04-23 17:47 50.85611 7.15761 294 ft 17 kts 138°
2026-04-23 17:48 50.85531 7.15881 297 ft 14 kts 136°
2026-04-23 17:48 50.85496 7.16001 299 ft 10 kts 71°
2026-04-23 17:48 50.85533 7.16083 301 ft 7 kts 49°
2026-04-23 17:48 50.85560 7.16129 302 ft 3 kts 46°
2026-04-23 17:49 50.85571 7.16146 302 ft 0 kts 46°
2026-04-23 17:49 50.85573 7.16150 302 ft 4 kts 46°
2026-04-23 17:49 50.85611 7.16212 303 ft 8 kts 46°
2026-04-23 17:49 50.85663 7.16295 305 ft 11 kts 37°
2026-04-23 17:50 50.85725 7.16271 304 ft 0 kts 317°
2026-04-23 17:50 50.85726 7.16270 304 ft 0 kts 317°
2026-04-23 17:50 50.85731 7.16262 304 ft 6 kts 317°
2026-04-23 17:51 50.85943 7.15958 297 ft 81 kts 317°
2026-04-23 17:51 50.86555 7.15076 279 ft 153 kts 317°
2026-04-23 17:51 50.88219 7.12688 1841 ft 161 kts 321°
2026-04-23 17:52 50.89068 7.11577 2519 ft 160 kts 336°
2026-04-23 17:52 50.91181 7.12067 3713 ft 165 kts 26°
2026-04-23 17:52 50.92197 7.12854 4336 ft 166 kts 23°
2026-04-23 17:53 50.93974 7.15066 5558 ft 175 kts 60°
2026-04-23 17:53 50.94452 7.16851 6204 ft 176 kts 61°
2026-04-23 17:53 50.94961 7.18575 6788 ft 177 kts 59°
2026-04-23 17:54 50.95519 7.20327 7374 ft 181 kts 58°
2026-04-23 17:54 50.96118 7.22185 7763 ft 198 kts 58°
2026-04-23 17:54 50.97438 7.26344 8676 ft 225 kts 59°
2026-04-23 17:55 50.98945 7.31112 9583 ft 256 kts 60°
2026-04-23 17:55 50.99766 7.33712 10072 ft 271 kts 60°
2026-04-23 17:55 51.00623 7.36431 10663 ft 280 kts 60°
2026-04-23 17:56 51.01467 7.39286 11046 ft 298 kts 66°
2026-04-23 17:56 51.01553 7.46228 11805 ft 341 kts 101°
2026-04-23 17:56 51.00836 7.49890 12173 ft 357 kts 105°
2026-04-23 17:57 51.00016 7.53688 12547 ft 372 kts 105°
2026-04-23 17:57 50.99164 7.57648 12917 ft 386 kts 105°
2026-04-23 17:57 50.97430 7.66053 13895 ft 405 kts 105°
2026-04-23 17:58 50.96589 7.70240 14681 ft 406 kts 105°
2026-04-23 17:58 50.95735 7.74523 15451 ft 407 kts 105°
2026-04-23 17:58 50.94825 7.78809 16231 ft 408 kts 108°
2026-04-23 17:58 50.93732 7.82937 17078 ft 407 kts 114°
2026-04-23 17:59 50.92397 7.86831 17942 ft 406 kts 119°
2026-04-23 17:59 50.90878 7.90638 18829 ft 403 kts 122°
2026-04-23 17:59 50.89344 7.94232 19668 ft 399 kts 122°
2026-04-23 17:59 50.87758 7.97883 20460 ft 397 kts 122°
2026-04-23 18:00 50.86212 8.01455 21200 ft 396 kts 122°
2026-04-23 18:00 50.84678 8.05022 21944 ft 394 kts 122°
2026-04-23 18:00 50.83133 8.08635 22612 ft 394 kts 122°
2026-04-23 18:00 50.81587 8.12272 23016 ft 401 kts 121°
2026-04-23 18:01 50.80032 8.15944 23287 ft 410 kts 122°
2026-04-23 18:01 50.78421 8.19750 23304 ft 414 kts 121°
2026-04-23 18:01 50.76819 8.23536 23308 ft 413 kts 121°
2026-04-23 18:01 50.75248 8.27239 23298 ft 412 kts 121°
2026-04-23 18:02 50.74169 8.29783 23300 ft 413 kts 121°
2026-04-23 18:02 50.72034 8.34774 23297 ft 412 kts 122°
2026-04-23 18:02 50.70304 8.38346 23307 ft 414 kts 128°
2026-04-23 18:02 50.68213 8.41531 23297 ft 417 kts 139°
2026-04-23 18:03 50.65804 8.44133 23298 ft 420 kts 146°
2026-04-23 18:03 50.63264 8.46441 23293 ft 421 kts 148°
2026-04-23 18:03 50.60699 8.48601 23297 ft 420 kts 149°
2026-04-23 18:03 50.58094 8.50730 23291 ft 421 kts 150°
2026-04-23 18:04 50.55494 8.52844 23292 ft 421 kts 150°
2026-04-23 18:04 50.52882 8.54973 23291 ft 421 kts 149°
2026-04-23 18:04 50.50275 8.57110 23288 ft 420 kts 149°
2026-04-23 18:04 50.47702 8.59232 23288 ft 422 kts 149°
2026-04-23 18:05 50.45034 8.61274 23285 ft 423 kts 153°
2026-04-23 18:05 50.42313 8.62963 23287 ft 423 kts 157°
2026-04-23 18:05 50.39490 8.64444 23288 ft 425 kts 160°
2026-04-23 18:05 50.36669 8.65789 23284 ft 425 kts 161°
2026-04-23 18:06 50.33834 8.67087 23285 ft 426 kts 162°
2026-04-23 18:06 50.30972 8.68381 23283 ft 426 kts 161°
2026-04-23 18:06 50.28128 8.69667 23277 ft 427 kts 161°
2026-04-23 18:06 50.25283 8.70960 23275 ft 426 kts 161°
2026-04-23 18:07 50.22429 8.72266 23273 ft 427 kts 161°
2026-04-23 18:07 50.19613 8.73561 23269 ft 427 kts 161°
2026-04-23 18:07 50.16728 8.74893 23273 ft 427 kts 161°
2026-04-23 18:07 50.13900 8.76201 23261 ft 427 kts 161°
2026-04-23 18:08 50.11962 8.77099 23263 ft 427 kts 161°
2026-04-23 18:08 50.08134 8.78689 23262 ft 429 kts 166°
2026-04-23 18:08 50.05162 8.79261 23262 ft 431 kts 176°
2026-04-23 18:08 50.02203 8.78952 23269 ft 434 kts 186°
2026-04-23 18:09 49.99203 8.78142 23266 ft 436 kts 189°
2026-04-23 18:09 49.96220 8.77137 23265 ft 435 kts 191°
2026-04-23 18:09 49.93263 8.76060 23266 ft 437 kts 192°
2026-04-23 18:09 49.90339 8.74977 23257 ft 436 kts 191°
2026-04-23 18:10 49.87393 8.73891 23261 ft 437 kts 191°
2026-04-23 18:10 49.84419 8.72809 23258 ft 437 kts 191°
2026-04-23 18:10 49.81459 8.71748 23256 ft 437 kts 191°
2026-04-23 18:10 49.78482 8.70694 23266 ft 436 kts 191°
2026-04-23 18:11 49.75539 8.69671 23259 ft 436 kts 191°
2026-04-23 18:11 49.72546 8.68761 23259 ft 434 kts 187°
2026-04-23 18:11 49.69539 8.68149 23257 ft 433 kts 184°
2026-04-23 18:11 49.66532 8.67716 23262 ft 432 kts 182°
2026-04-23 18:12 49.63566 8.67364 23263 ft 433 kts 182°
2026-04-23 18:12 49.60553 8.67028 23262 ft 431 kts 182°
2026-04-23 18:12 49.57531 8.66689 23263 ft 433 kts 182°
2026-04-23 18:12 49.54550 8.66342 23272 ft 434 kts 182°
2026-04-23 18:13 49.51544 8.65977 23274 ft 433 kts 182°
2026-04-23 18:13 49.48518 8.65597 23274 ft 433 kts 182°
2026-04-23 18:13 49.45519 8.65212 23275 ft 433 kts 182°
2026-04-23 18:13 49.42497 8.64819 23269 ft 433 kts 182°
2026-04-23 18:14 49.39530 8.64429 23272 ft 434 kts 182°
2026-04-23 18:14 49.36500 8.64029 23271 ft 433 kts 182°
2026-04-23 18:14 49.33488 8.63631 23264 ft 432 kts 182°
2026-04-23 18:14 49.30510 8.63222 23276 ft 432 kts 183°
2026-04-23 18:15 49.27486 8.62771 23256 ft 432 kts 183°
2026-04-23 18:15 49.24499 8.62303 22966 ft 426 kts 184°
2026-04-23 18:15 49.21549 8.61836 22298 ft 426 kts 184°
2026-04-23 18:15 49.18645 8.61375 21699 ft 424 kts 184°
2026-04-23 18:16 49.15713 8.60912 21133 ft 422 kts 184°
2026-04-23 18:16 49.12790 8.60390 20545 ft 420 kts 189°
2026-04-23 18:16 49.10020 8.59017 19987 ft 419 kts 205°
2026-04-23 18:17 49.05074 8.54537 19054 ft 409 kts 213°
2026-04-23 18:17 49.02720 8.52148 18549 ft 405 kts 213°
2026-04-23 18:17 49.00401 8.49765 17993 ft 402 kts 214°
2026-04-23 18:17 48.98082 8.47383 17403 ft 400 kts 214°
2026-04-23 18:18 48.95788 8.45033 16826 ft 397 kts 214°
2026-04-23 18:18 48.93472 8.42671 16270 ft 394 kts 214°
2026-04-23 18:18 48.91230 8.40393 15760 ft 389 kts 214°
2026-04-23 18:18 48.88980 8.38117 15251 ft 384 kts 214°
2026-04-23 18:19 48.86765 8.35883 14753 ft 380 kts 214°
2026-04-23 18:19 48.84587 8.33698 14247 ft 376 kts 213°
2026-04-23 18:19 48.82446 8.31556 13853 ft 368 kts 213°
2026-04-23 18:19 48.80323 8.29441 13580 ft 358 kts 213°
2026-04-23 18:20 48.78260 8.27394 13323 ft 348 kts 213°
2026-04-23 18:20 48.76270 8.25423 13090 ft 339 kts 213°
2026-04-23 18:20 48.74313 8.23485 12837 ft 330 kts 213°
2026-04-23 18:20 48.72426 8.21615 12600 ft 320 kts 213°
2026-04-23 18:21 48.70596 8.19798 12352 ft 310 kts 213°
2026-04-23 18:21 48.68814 8.18024 12049 ft 301 kts 213°
2026-04-23 18:21 48.67090 8.16306 11615 ft 292 kts 213°
2026-04-23 18:21 48.65411 8.14629 11083 ft 288 kts 213°
2026-04-23 18:22 48.63751 8.12966 10568 ft 284 kts 213°
2026-04-23 18:22 48.62187 8.11223 9999 ft 281 kts 220°
2026-04-23 18:22 48.60725 8.09262 9449 ft 277 kts 223°
2026-04-23 18:22 48.59336 8.07310 8905 ft 275 kts 223°
2026-04-23 18:23 48.58405 8.05990 8537 ft 273 kts 223°
2026-04-23 18:23 48.55201 8.01429 7264 ft 268 kts 223°
2026-04-23 18:24 48.52604 7.97673 6536 ft 251 kts 227°
2026-04-23 18:24 48.51710 7.95439 6159 ft 244 kts 256°
2026-04-23 18:24 48.51673 7.92957 5824 ft 234 kts 288°
2026-04-23 18:25 48.53824 7.89872 5241 ft 212 kts 353°
2026-04-23 18:25 48.55242 7.89776 5129 ft 197 kts
2026-04-23 18:25 48.56583 7.89807 5017 ft 186 kts
2026-04-23 18:25 48.57837 7.89976 4818 ft 180 kts 15°
2026-04-23 18:26 48.59007 7.90614 4568 ft 176 kts 28°
2026-04-23 18:26 48.60075 7.91488 4323 ft 174 kts 31°
2026-04-23 18:26 48.61125 7.92427 4080 ft 174 kts 32°
2026-04-23 18:26 48.62159 7.93379 3837 ft 173 kts 32°
2026-04-23 18:27 48.63180 7.94324 3618 ft 166 kts 32°
2026-04-23 18:27 48.64119 7.95194 3398 ft 152 kts 32°
2026-04-23 18:27 48.65009 7.96021 3176 ft 149 kts 32°
2026-04-23 18:27 48.65889 7.96837 2974 ft 146 kts 32°
2026-04-23 18:28 48.66756 7.97642 2768 ft 147 kts 32°
2026-04-23 18:28 48.67625 7.98450 2567 ft 146 kts 32°
2026-04-23 18:28 48.68496 7.99259 2369 ft 145 kts 32°
2026-04-23 18:28 48.69352 8.00056 2177 ft 145 kts 32°
2026-04-23 18:29 48.70215 8.00858 1978 ft 145 kts 32°
2026-04-23 18:29 48.71067 8.01651 1785 ft 144 kts 32°
2026-04-23 18:29 48.71925 8.02450 1591 ft 144 kts 32°
2026-04-23 18:29 48.72776 8.03242 1401 ft 144 kts 32°
2026-04-23 18:30 48.73637 8.04045 1207 ft 145 kts 32°
2026-04-23 18:30 48.74500 8.04847 1012 ft 146 kts 31°
2026-04-23 18:30 48.75365 8.05654 811 ft 147 kts 31°
2026-04-23 18:30 48.76246 8.06456 606 ft 148 kts 31°
2026-04-23 18:31 48.77126 8.07295 419 ft 144 kts 32°
2026-04-23 18:31 48.77800 8.07926 409 ft 76 kts 31°
2026-04-23 18:31 48.78130 8.08234 409 ft 51 kts 31°
2026-04-23 18:31 48.78329 8.08418 409 ft 13 kts 31°
2026-04-23 18:32 48.78361 8.08502 409 ft 11 kts 100°
2026-04-23 18:32 48.78330 8.08600 409 ft 0 kts 119°
2026-04-23 18:33 48.78322 8.08621 409 ft 9 kts 119°
2026-04-23 18:33 48.78279 8.08731 409 ft 12 kts 121°
2026-04-23 18:33 48.78236 8.08835 409 ft 11 kts 134°
2026-04-23 18:33 48.78171 8.08816 409 ft 9 kts 212°
2026-04-23 18:34 48.78115 8.08764 409 ft 8 kts 195°
2026-04-23 18:34 48.78087 8.08792 409 ft 4 kts 121°
2026-04-23 18:34 48.78077 8.08814 409 ft 0 kts 143°
2026-04-23 18:34 48.78075 8.08815 409 ft 0 kts 162°